Location: Unspecified
(47.9110°N, 14.3980°E)
Time: 16:37:36
(UTC+00:00)

Cosmos 1802 Rocket - Pass Details

Date: 06 August 2020
Orbit: 953 x 1012 km, 82.9° (Epoch: 18 September)

Event Time Altitude Azimuth Distance (km) Brightness Sun altitude
Exits shadow 22:04:02 48° 190° (S) 1,294 4.2 -24.1°
Maximum altitude 22:06:01 88° 278° (W) 1,015 4.0 -24.2°
Drops below altitude 10° 22:12:26 10° 9° (N) 2,780 7.3 -24.5°
Sets 22:14:58 0° 10° (N) 3,726 8.1 -24.6°
